STARLINK-1560, 46036

Orbit data source: Space-Track

STARLINK-1560, 46036 is a payload satellite owned by SpaceX/Seattle (US) in LEO that was launched on Fri, 07 Aug 2020 UTC via an FALCON 9 launch vehicle from the Air Force Eastern Test Range (AFETR). Payload-class satellites include a variety of spacecraft equipped with specific instruments for various scientific and technological missions. These include communications satellites like Starlink; space stations such as the ISS; scientific satellites like the Hubble; Earth observation satellites from companies like Planet Labs, Umbra, and HawkEye 360; GPS; miniature CubeSats for education and research; and military/defense satellites.

Loading next visibility...
Identifier
46036, 2020-055K
Orbit
LEO
Country
Flag of USUS
Related business
Manufacturer
SpaceX/Seattle
Mission
Operational Commercial Communications
Bus & Motor
STARLINK, Unknown motor
Mass
260 kg wet, ~248 kg dry
Launch date (UTC)
2020-08-07 (5 years ago)
Launch vehicle
FALCON 9
Launch site
Air Force Eastern Test Range (AFETR)
Object type
Payload
Rocket body
Debris
Shape & HBR
Box + 1 Pan, 10.1 m
Radar Cross Section
13.562 m², Large (>1 m²)

Expand to show TLE details & history
Last TLE update: 7 hours ago

TLE from 7 hours ago
0 STARLINK-1560
1 46036U 20055K   25311.18986719  .00003886  00000-0  27962-3 0  9996
2 46036  53.0545 316.5458 0001438 100.4073 259.7078 15.06396443290433
Epoch: 2025-11-07T04:33Z
TLE epoch observation values (Epoch: 2025-11-07T04:33:24.525Z)
Latitude
-0.00002°
Longitude
-158.4438°
Altitude
548.28 km
Speed
7.589 km/s
True Right ascension
21h 06m 10s
True Declination
0° 00' 00"
Sunlit
Object was in daylight at epoch
Visualization orbit readout
Latitude
Unknown
Longitude
Unknown
Altitude
Unknown
Speed
Unknown
Apparent Right ascension
Unknown
Apparent Declination
Unknown
Sunlit
N/A
Visualization observer readout
Local Sidereal Time
07:47:52
Azimuth
Unknown
Elevation
Unknown
Doppler factor
Unknown
Orbital elements
Apogee altitude
548.489 km
Perigee altitude
546.497 km
Semi-major axis
6,925.63 km
Eccentricity
0.00014
Inclination
53.0545°
RAAN
316.5458°
Arg. of periapsis
100.4073°
True anomaly
259.69159°
Mean anomaly
259.7078°
Eccentric anomaly
259.69969°
Mean motion
3.76577 °/min
Orbital period
95.6 mins
BSTAR
0.00027962
Loading maneuver chart data...
Computing Atmospheric mass density...
Loading historical data...
Loading historical data...
Loading historical data...
Loading historical data...
Loading historical data...
Loading historical data...
Loading historical data...

Documentation

Showing up to 5 results
|